Starlink 4683

operational
NORAD ID: 53712 Int'l Des: 2022-107 Owner: SPXS Country: US Constellation: starlink
LEOCIRCULAR

关于 Starlink 4683

正在加载描述...

实时位置

正在加载3D地球...

即将过境

高度历史

Altitude vs Time

uPlot chart will show altitude changes over time

两行轨道根数

1 53712U 22107N 25303.21708869 -.00000044 00000-0 15330-4 0 9999
2 53712 53.2160 114.3790 0001346 87.6440 272.4706 15.08841244174800
Epoch: Oct 30, 2025 • Age: 36 hours

当前状态

高度 557.9 km
速度 7.58 km/s
星下点 -50.11°S, 50.69°E
发射日期 Sep 5, 2022
运行时间 3.1 years
类型 internet

技术详情

分类 Payload
质量 305.00 kg
干质量 290.00 kg
总质量 305.00 kg
长度 0.20 m
直径 2.80 m
跨度 9.00 m
形状 Box + pan
制造商 SPXS
平台类型 Starlink
阶段状态 In Orbit
所有者/国家 SPXS/US

大型星座

Loading constellations...